Holloman AFB, NM

1:12 AM MST on February 27, 2017 (GMT -0700)
Holloman Air Force Base

Weather History for KHMN - August, 2013

Change the Weather History Date:

Friday, August 9, 2013

  Actual Average Record
Temperature  
Mean Temperature 80 °F -  
Max Temperature 95 °F 90 °F 100 °F (2003)
Min Temperature 64 °F 64 °F 62 °F (1996)
Cooling Degree Days 14    
Growing Degree Days 30 (Base 50)    
Moisture  
Dew Point 46 °F    
Average Humidity 29    
Maximum Humidity 52    
Minimum Humidity 15    
Precipitation  
Precipitation 0.00 in - - ()
Sea Level Pressure  
Sea Level Pressure 29.84 in    
Wind  
Wind Speed 6 mph (SSE)    
Max Wind Speed 16 mph    
Max Gust Speed 17 mph    
Visibility 10 miles    
Events      
Averages and records for this station are not official NWS values.
T = Trace of Precipitation, MM = Missing Value Source: NWS Daily Summary

Daily Weather History Graph

Daily Weather History Graph

Search for Another Location

Airport or City:

Trip Planner

Search our weather history database for the weather conditions in past years. The results will help you decide how hot, cold, wet, or windy it might be!

Date:

Astronomy

Aug. 09, 2013 Rise Set
Actual Time 6:23 AM MDT 7:55 PM MDT
Civil Twilight 5:57 AM MDT 8:21 PM MDT
Nautical Twilight 5:25 AM MDT 8:53 PM MDT
Astronomical Twilight 4:52 AM MDT 9:26 PM MDT
Moon 9:00 AM MDT (8/9) 9:20 PM MDT (8/9)
Length of Visible Light 14h 24m
Length of Day
13h 31m
Waxing Crescent, 8% of the Moon is Illuminated
Aug 9
Waxing Crescent
Aug 14
First Quarter
Aug 20
Full
Aug 28
Last Quarter
Sep 5
New

Hourly Weather History & Observations

Time (MDT) Temp. Dew Point Humidity Pressure Visibility Wind Dir Wind Speed Gust Speed Precip Events Conditions
12:58 AM 77.4 °F 45.0 °F 32% 29.80 in 10.0 mi SSE 5.8 mph - N/A   Scattered Clouds
1:58 AM 75.6 °F 44.2 °F 33% 29.79 in 10.0 mi ESE 8.1 mph - N/A   Scattered Clouds
2:58 AM 72.5 °F 45.5 °F 38% 29.79 in 10.0 mi ESE 9.2 mph - N/A   Partly Cloudy
3:58 AM 72.0 °F 45.7 °F 39% 29.80 in 10.0 mi Calm Calm - N/A   Scattered Clouds
4:58 AM 68.7 °F 45.3 °F 43% 29.82 in 10.0 mi NW 3.5 mph - N/A   Partly Cloudy
5:58 AM 64.9 °F 46.8 °F 52% 29.83 in 10.0 mi NNW 3.5 mph - N/A   Partly Cloudy
6:58 AM 64.8 °F 45.9 °F 50% 29.85 in 10.0 mi ENE 4.6 mph - N/A   Scattered Clouds
7:58 AM 74.7 °F 45.3 °F 35% 29.85 in 10.0 mi SSW 3.5 mph - N/A   Partly Cloudy
8:58 AM 77.0 °F 48.2 °F 36% 29.88 in 10.0 mi South 3.5 mph - N/A   Partly Cloudy
9:58 AM 78.8 °F 46.4 °F 32% 29.89 in 10.0 mi SSE 4.6 mph - N/A   Partly Cloudy
10:58 AM 80.6 °F 46.4 °F 30% 29.89 in 10.0 mi SSE 6.9 mph - N/A   Partly Cloudy
11:58 AM 84.2 °F 46.4 °F 27% 29.89 in 10.0 mi South 4.6 mph - N/A   Partly Cloudy
12:58 PM 90.7 °F 47.5 °F 23% 29.86 in 10.0 mi SSW 5.8 mph - N/A   Clear
12:59 PM 87.8 °F 48.2 °F 25% 29.88 in 10.0 mi South 5.8 mph - N/A   Partly Cloudy
1:58 PM 93.6 °F 40.6 °F 16% 29.84 in 10.0 mi South 9.2 mph - N/A   Partly Cloudy
2:58 PM 95.0 °F 41.0 °F 15% 29.82 in 10.0 mi SSW 9.2 mph 17.3 mph N/A   Partly Cloudy
3:58 PM 95.0 °F 41.0 °F 15% 29.82 in 10.0 mi SSW 9.2 mph 17.3 mph N/A   Partly Cloudy
4:58 PM 93.7 °F 41.7 °F 16% 29.81 in 10.0 mi SSE 9.2 mph - N/A   Partly Cloudy
5:58 PM 94.8 °F 41.4 °F 16% 29.81 in 10.0 mi Variable 6.9 mph - N/A   Scattered Clouds
6:58 PM 93.6 °F 41.9 °F 17% 29.81 in 10.0 mi SSE 16.1 mph - N/A   Scattered Clouds
7:58 PM 90.7 °F 43.7 °F 20% 29.81 in 10.0 mi SSE 10.4 mph - N/A   Scattered Clouds
8:58 PM 87.8 °F 50.0 °F 27% 29.83 in 10.0 mi ESE 6.9 mph - N/A   Scattered Clouds
9:58 PM 83.8 °F 48.9 °F 30% 29.86 in 10.0 mi ESE 4.6 mph - N/A   Scattered Clouds
10:58 PM 81.3 °F 49.6 °F 33% 29.87 in 10.0 mi South 8.1 mph - N/A   Scattered Clouds
11:58 PM 82.4 °F 51.8 °F 35% 29.87 in 10.0 mi South 11.5 mph - N/A   Scattered Clouds